N59BS KBED-KTEB

Flight info

Callsign N59BS
Flight time N/A
Altitude 16000
Route REVSS BAF MOBBS T295 SAGES V489 COATE
Aircraft C525/L-SDFGRWY/S

Departure

Time 2026-04-28 14:10
Airport Laurence G Hanscom Field (KBED)

Arrival

Time N/A
Airport Teterboro Airport (KTEB)
Time Latitude Longitude Altitude Speed Heading
2026-04-28 13:58 42.46172 -71.29371 128 ft 0 kts 309°
2026-04-28 14:04 42.46175 -71.29377 128 ft 2 kts 310°
2026-04-28 14:04 42.46196 -71.29406 128 ft 3 kts 317°
2026-04-28 14:05 42.46201 -71.29412 128 ft 2 kts 320°
2026-04-28 14:06 42.46224 -71.29436 128 ft 5 kts 326°
2026-04-28 14:06 42.46255 -71.29492 128 ft 9 kts 304°
2026-04-28 14:06 42.46300 -71.29573 128 ft 12 kts 307°
2026-04-28 14:06 42.46360 -71.29678 128 ft 15 kts 307°
2026-04-28 14:07 42.46452 -71.29761 130 ft 17 kts 338°
2026-04-28 14:07 42.46571 -71.29825 129 ft 19 kts 339°
2026-04-28 14:07 42.46707 -71.29898 129 ft 22 kts 339°
2026-04-28 14:07 42.46856 -71.29979 131 ft 23 kts 339°
2026-04-28 14:08 42.46987 -71.30034 132 ft 18 kts
2026-04-28 14:08 42.47083 -71.30020 130 ft 0 kts
2026-04-28 14:08 42.47086 -71.30020 130 ft 1 kts
2026-04-28 14:08 42.47101 -71.30018 129 ft 4 kts
2026-04-28 14:09 42.47173 -71.30003 128 ft 9 kts 33°
2026-04-28 14:09 42.47178 -71.29977 127 ft 0 kts 102°
2026-04-28 14:09 42.47152 -71.29707 124 ft 63 kts 96°
2026-04-28 14:09 42.47070 -71.28838 131 ft 116 kts 97°
2026-04-28 14:10 42.46937 -71.27788 536 ft 116 kts 110°
2026-04-28 14:10 42.46236 -71.27119 794 ft 143 kts 160°
2026-04-28 14:10 42.45206 -71.26795 1174 ft 163 kts 167°
2026-04-28 14:10 42.43995 -71.26994 1545 ft 188 kts 193°
2026-04-28 14:11 42.42659 -71.27570 1897 ft 211 kts 196°
2026-04-28 14:11 42.41178 -71.28265 2022 ft 242 kts 197°
2026-04-28 14:11 42.39468 -71.29079 2039 ft 271 kts 197°
2026-04-28 14:11 42.37618 -71.29949 2151 ft 293 kts 197°
2026-04-28 14:12 42.35603 -71.30889 2441 ft 315 kts 197°
2026-04-28 14:12 42.33629 -71.31815 4066 ft 284 kts 197°
2026-04-28 14:12 42.31995 -71.32613 5720 ft 254 kts 198°
2026-04-28 14:12 42.30343 -71.33426 6681 ft 252 kts 198°
2026-04-28 14:13 42.28640 -71.34136 7408 ft 258 kts 191°
2026-04-28 14:13 42.26901 -71.34718 8158 ft 264 kts 194°
2026-04-28 14:13 42.25330 -71.35967 8971 ft 266 kts 222°
2026-04-28 14:13 42.23779 -71.37388 9577 ft 271 kts 199°
2026-04-28 14:14 42.22058 -71.38390 10198 ft 278 kts 217°
2026-04-28 14:14 42.20959 -71.40433 11003 ft 271 kts 250°
2026-04-28 14:14 42.20770 -71.42922 11599 ft 268 kts 283°
2026-04-28 14:14 42.21328 -71.45282 12309 ft 262 kts 296°
2026-04-28 14:15 42.22089 -71.47542 12898 ft 264 kts 301°
2026-04-28 14:15 42.22905 -71.49764 13475 ft 267 kts 301°
2026-04-28 14:15 42.23683 -71.52045 14040 ft 272 kts 291°
2026-04-28 14:15 42.23840 -71.54630 14611 ft 280 kts 275°
2026-04-28 14:16 42.23765 -71.57278 15149 ft 283 kts 271°
2026-04-28 14:16 42.23630 -71.59943 15647 ft 286 kts 271°
2026-04-28 14:16 42.23478 -71.62629 15935 ft 297 kts 270°
2026-04-28 14:16 42.23311 -71.65482 15987 ft 309 kts 270°
2026-04-28 14:17 42.23131 -71.68426 15990 ft 312 kts 269°
2026-04-28 14:17 42.22950 -71.71344 15994 ft 315 kts 269°
2026-04-28 14:17 42.22763 -71.74338 15995 ft 318 kts 269°
2026-04-28 14:17 42.22575 -71.77341 15991 ft 320 kts 270°
2026-04-28 14:18 42.22384 -71.80326 15989 ft 321 kts 269°
2026-04-28 14:18 42.22192 -71.83341 15989 ft 322 kts 269°
2026-04-28 14:18 42.21997 -71.86376 15986 ft 324 kts 270°
2026-04-28 14:18 42.21801 -71.89422 15990 ft 324 kts 269°
2026-04-28 14:19 42.21603 -71.92478 15988 ft 325 kts 270°
2026-04-28 14:19 42.21405 -71.95521 15988 ft 325 kts 269°
2026-04-28 14:19 42.21207 -71.98580 15985 ft 326 kts 269°
2026-04-28 14:19 42.21008 -72.01632 15982 ft 327 kts 270°
2026-04-28 14:20 42.20807 -72.04689 15977 ft 328 kts 269°
2026-04-28 14:20 42.20601 -72.07800 15966 ft 328 kts 269°
2026-04-28 14:20 42.20400 -72.10844 15968 ft 328 kts 269°
2026-04-28 14:20 42.20196 -72.13906 15975 ft 328 kts 269°
2026-04-28 14:21 42.19989 -72.17000 15969 ft 328 kts 269°
2026-04-28 14:21 42.19784 -72.20061 15957 ft 328 kts 269°
2026-04-28 14:21 42.19577 -72.23138 15964 ft 328 kts 269°
2026-04-28 14:21 42.19371 -72.26186 15967 ft 328 kts 269°
2026-04-28 14:22 42.19159 -72.29298 15966 ft 328 kts 269°
2026-04-28 14:22 42.18955 -72.32328 15968 ft 328 kts 269°
2026-04-28 14:22 42.18740 -72.35429 15961 ft 328 kts 269°
2026-04-28 14:22 42.18531 -72.38502 15963 ft 328 kts 269°
2026-04-28 14:23 42.18321 -72.41539 15960 ft 328 kts 269°
2026-04-28 14:23 42.18108 -72.44617 15964 ft 328 kts 268°
2026-04-28 14:23 42.17894 -72.47698 15960 ft 328 kts 269°
2026-04-28 14:23 42.17679 -72.50777 15964 ft 328 kts 269°
2026-04-28 14:24 42.17465 -72.53848 15960 ft 328 kts 268°
2026-04-28 14:24 42.17250 -72.56908 15962 ft 328 kts 268°
2026-04-28 14:24 42.17033 -72.59983 15966 ft 327 kts 268°
2026-04-28 14:24 42.16819 -72.63020 15962 ft 327 kts 268°
2026-04-28 14:25 42.16599 -72.66090 15962 ft 328 kts 268°
2026-04-28 14:25 42.16379 -72.69187 15959 ft 328 kts 268°
2026-04-28 14:25 42.16163 -72.72222 15960 ft 328 kts 267°
2026-04-28 14:25 42.15957 -72.75283 15962 ft 327 kts 267°
2026-04-28 14:26 42.15757 -72.78350 15962 ft 327 kts 267°
2026-04-28 14:26 42.15554 -72.81451 15965 ft 327 kts 268°
2026-04-28 14:26 42.15353 -72.84513 15957 ft 327 kts 267°
2026-04-28 14:26 42.15154 -72.87541 15962 ft 327 kts 268°
2026-04-28 14:27 42.14950 -72.90597 15961 ft 326 kts 267°
2026-04-28 14:27 42.14746 -72.93661 15958 ft 326 kts 267°
2026-04-28 14:27 42.14540 -72.96732 15959 ft 326 kts 267°
2026-04-28 14:27 42.14337 -72.99739 15954 ft 326 kts 268°
2026-04-28 14:28 42.14130 -73.02805 15953 ft 325 kts 268°
2026-04-28 14:28 42.13924 -73.05856 15954 ft 326 kts 268°
2026-04-28 14:28 42.13716 -73.08902 15957 ft 326 kts 267°
2026-04-28 14:28 42.13506 -73.11961 15959 ft 326 kts 267°
2026-04-28 14:29 42.13296 -73.15005 15951 ft 327 kts 267°
2026-04-28 14:29 42.13087 -73.18040 15950 ft 327 kts 266°
2026-04-28 14:29 42.12873 -73.21127 15952 ft 327 kts 266°
2026-04-28 14:29 42.12662 -73.24151 15954 ft 327 kts 266°
2026-04-28 14:30 42.12448 -73.27219 15941 ft 327 kts 266°
2026-04-28 14:30 42.12233 -73.30277 15945 ft 327 kts 266°
2026-04-28 14:30 42.12018 -73.33341 15950 ft 326 kts 266°
2026-04-28 14:30 42.11806 -73.36343 15954 ft 326 kts 266°
2026-04-28 14:31 42.11587 -73.39426 15951 ft 326 kts 265°
2026-04-28 14:31 42.11371 -73.42456 15945 ft 326 kts 266°
2026-04-28 14:31 42.11152 -73.45512 15945 ft 325 kts 265°
2026-04-28 14:31 42.10935 -73.48541 15947 ft 325 kts 265°
2026-04-28 14:32 42.10717 -73.51572 15949 ft 326 kts 265°
2026-04-28 14:32 42.10496 -73.54617 15941 ft 327 kts 264°
2026-04-28 14:32 42.10275 -73.57666 15948 ft 327 kts 265°
2026-04-28 14:32 42.10051 -73.60738 15949 ft 327 kts 265°
2026-04-28 14:33 42.09828 -73.63797 15951 ft 327 kts 264°
2026-04-28 14:33 42.09605 -73.66835 15945 ft 326 kts 263°
2026-04-28 14:33 42.09379 -73.69900 15949 ft 325 kts 263°
2026-04-28 14:33 42.09156 -73.72915 15956 ft 324 kts 263°
2026-04-28 14:34 42.08707 -73.78961 15953 ft 322 kts 263°
2026-04-28 14:34 42.08483 -73.81965 15953 ft 322 kts 263°
2026-04-28 14:34 42.08335 -73.83939 15949 ft 321 kts 263°
2026-04-28 14:35 42.08033 -73.87943 15951 ft 321 kts 263°
2026-04-28 14:35 42.07806 -73.90950 15953 ft 322 kts 263°
2026-04-28 14:35 42.07579 -73.93938 15954 ft 322 kts 263°
2026-04-28 14:35 42.07348 -73.96969 15955 ft 322 kts 264°
2026-04-28 14:36 42.07118 -73.99975 15955 ft 322 kts 264°
2026-04-28 14:36 42.06891 -74.02944 15957 ft 322 kts 263°
2026-04-28 14:36 42.06656 -74.05981 15956 ft 323 kts 263°
2026-04-28 14:36 42.06426 -74.08966 15955 ft 323 kts 264°
2026-04-28 14:37 42.06192 -74.11984 15958 ft 323 kts 264°
2026-04-28 14:37 42.05961 -74.14969 15957 ft 323 kts 263°
2026-04-28 14:37 42.05725 -74.18005 15950 ft 323 kts 263°
2026-04-28 14:37 42.05493 -74.20969 15951 ft 323 kts 263°
2026-04-28 14:38 42.05257 -74.23981 15945 ft 323 kts 263°
2026-04-28 14:38 42.05020 -74.27006 15947 ft 323 kts 263°
2026-04-28 14:38 42.04516 -74.29944 15916 ft 322 kts 244°
2026-04-28 14:38 42.03145 -74.32237 15933 ft 318 kts 219°
2026-04-28 14:39 42.01338 -74.33953 15934 ft 318 kts 212°
2026-04-28 14:39 41.99435 -74.35500 15931 ft 318 kts 210°
2026-04-28 14:39 41.97516 -74.36974 15931 ft 317 kts 208°
2026-04-28 14:39 41.95587 -74.38423 15938 ft 317 kts 208°
2026-04-28 14:40 41.93637 -74.39869 15932 ft 316 kts 208°
2026-04-28 14:40 41.93005 -74.40337 15937 ft 312 kts 208°
2026-04-28 14:40 41.89932 -74.42592 15919 ft 287 kts 208°
2026-04-28 14:40 41.88146 -74.43896 15572 ft 287 kts 208°
2026-04-28 14:41 41.86375 -74.45184 15203 ft 288 kts 208°
2026-04-28 14:41 41.84600 -74.46472 14838 ft 289 kts 208°
2026-04-28 14:41 41.82825 -74.47759 14464 ft 289 kts 208°
2026-04-28 14:41 41.81069 -74.49030 14100 ft 289 kts 208°
2026-04-28 14:42 41.79263 -74.50333 13718 ft 289 kts 208°
2026-04-28 14:42 41.77497 -74.51607 13355 ft 289 kts 207°
2026-04-28 14:42 41.75613 -74.52577 12967 ft 288 kts 191°
2026-04-28 14:42 41.73652 -74.52991 12615 ft 287 kts 189°
2026-04-28 14:43 41.71669 -74.53387 12243 ft 286 kts 189°
2026-04-28 14:43 41.69684 -74.53769 11871 ft 285 kts 189°
2026-04-28 14:43 41.67720 -74.54144 11532 ft 284 kts 189°
2026-04-28 14:43 41.65758 -74.54515 11179 ft 283 kts 189°
2026-04-28 14:44 41.63818 -74.54886 10838 ft 282 kts 189°
2026-04-28 14:44 41.61844 -74.55258 10495 ft 282 kts 189°
2026-04-28 14:44 41.59907 -74.55624 10161 ft 282 kts 189°
2026-04-28 14:44 41.57980 -74.55987 9814 ft 280 kts 189°
2026-04-28 14:45 41.56028 -74.56357 9467 ft 277 kts 189°
2026-04-28 14:45 41.54125 -74.56715 9121 ft 275 kts 189°
2026-04-28 14:45 41.52240 -74.57070 8781 ft 270 kts 189°
2026-04-28 14:45 41.51000 -74.57304 8543 ft 266 kts 188°
2026-04-28 14:46 41.48581 -74.57761 8099 ft 259 kts 188°
2026-04-28 14:46 41.46796 -74.58096 7790 ft 254 kts 188°
2026-04-28 14:46 41.45075 -74.58418 7499 ft 250 kts 188°
2026-04-28 14:46 41.43356 -74.58743 7196 ft 246 kts 188°
2026-04-28 14:47 41.41638 -74.59067 6891 ft 244 kts 188°
2026-04-28 14:47 41.40001 -74.59541 6640 ft 240 kts 194°
2026-04-28 14:47 41.38398 -74.60127 6383 ft 237 kts 194°
2026-04-28 14:47 41.36807 -74.60736 6124 ft 234 kts 195°
2026-04-28 14:48 41.35258 -74.61332 5986 ft 229 kts 195°
2026-04-28 14:48 41.33747 -74.61913 5960 ft 222 kts 195°
2026-04-28 14:48 41.32276 -74.62476 5966 ft 216 kts 195°
2026-04-28 14:48 41.30802 -74.62656 5946 ft 210 kts 167°
2026-04-28 14:49 41.29581 -74.61607 5850 ft 216 kts 136°
2026-04-28 14:49 41.28681 -74.59946 5492 ft 230 kts 126°
2026-04-28 14:49 41.27871 -74.58059 5131 ft 239 kts 122°
2026-04-28 14:49 41.27077 -74.56060 4762 ft 245 kts 121°
2026-04-28 14:50 41.26288 -74.54012 4400 ft 249 kts 121°
2026-04-28 14:50 41.25510 -74.51965 4160 ft 247 kts 120°
2026-04-28 14:50 41.24746 -74.49934 3905 ft 244 kts 120°
2026-04-28 14:50 41.23990 -74.47924 3655 ft 242 kts 120°
2026-04-28 14:51 41.23236 -74.45913 3400 ft 240 kts 120°
2026-04-28 14:51 41.22498 -74.43938 3151 ft 238 kts 119°
2026-04-28 14:51 41.21758 -74.41963 2896 ft 236 kts 120°
2026-04-28 14:51 41.21035 -74.40028 2780 ft 229 kts 119°
2026-04-28 14:52 41.20339 -74.38163 2760 ft 221 kts 119°
2026-04-28 14:52 41.19798 -74.36713 2760 ft 215 kts 119°
2026-04-28 14:52 41.19149 -74.34976 2760 ft 209 kts 119°
2026-04-28 14:52 41.18508 -74.33262 2765 ft 204 kts 119°
2026-04-28 14:53 41.17876 -74.31583 2762 ft 202 kts 120°
2026-04-28 14:53 41.17204 -74.29964 2760 ft 200 kts 122°
2026-04-28 14:53 41.16518 -74.28359 2771 ft 198 kts 122°
2026-04-28 14:53 41.15841 -74.26777 2774 ft 199 kts 122°
2026-04-28 14:54 41.15149 -74.25166 2775 ft 201 kts 122°
2026-04-28 14:54 41.14454 -74.23545 2763 ft 202 kts 122°
2026-04-28 14:54 41.13753 -74.21908 2679 ft 208 kts 121°
2026-04-28 14:54 41.13025 -74.20205 2584 ft 211 kts 121°
2026-04-28 14:55 41.12301 -74.18511 2570 ft 211 kts 121°
2026-04-28 14:55 41.11581 -74.16824 2572 ft 209 kts 121°
2026-04-28 14:55 41.10867 -74.15151 2568 ft 206 kts 121°
2026-04-28 14:55 41.10138 -74.13511 2478 ft 208 kts 127°
2026-04-28 14:56 41.09130 -74.12080 2234 ft 213 kts 137°
2026-04-28 14:56 41.08034 -74.10750 2099 ft 213 kts 139°
2026-04-28 14:56 41.06929 -74.09453 2074 ft 207 kts 139°
2026-04-28 14:56 41.05867 -74.08209 2070 ft 202 kts 139°
2026-04-28 14:57 41.04819 -74.06982 2070 ft 198 kts 139°
2026-04-28 14:57 41.04128 -74.06171 2074 ft 196 kts 139°
2026-04-28 14:57 41.02614 -74.04913 2043 ft 195 kts 169°
2026-04-28 14:57 41.01289 -74.04793 1899 ft 188 kts 179°
2026-04-28 14:58 40.99991 -74.04842 1654 ft 187 kts 182°
2026-04-28 14:58 40.98689 -74.04932 1492 ft 181 kts 183°
2026-04-28 14:58 40.97457 -74.05026 1463 ft 171 kts 183°
2026-04-28 14:58 40.96293 -74.05116 1464 ft 163 kts 183°
2026-04-28 14:59 40.95227 -74.05201 1418 ft 147 kts 182°
2026-04-28 14:59 40.94403 -74.05275 1272 ft 145 kts 188°